Location: Sternwarte_Laufen
(47.9344°N, 12.9346°E)
Time: 17:21:10
(UTC+02:00)

HTV-X1 - Visible Passes

Search period start: 10 May 2026 00:00
Search period end: 20 May 2026 00:00
Orbit: 373 x 383 km, 51.6° (Epoch: 10 May)

Date Brightness Start Highest point End Pass type
(mag) Time Alt. Az. Time Alt. Az. Time Alt. Az.
10 May ? 04:07:08 19° S 04:07:08 19° S 04:08:35 10° SSE visible
10 May ? 22:14:09 10° WSW 22:17:13 71° SSE 22:20:18 10° ENE visible
10 May ? 23:50:17 10° W 23:53:07 41° NNW 23:53:07 41° NNW visible
11 May ? 21:13:36 10° SW 21:16:28 36° SSE 21:19:21 10° ENE visible
11 May ? 22:49:16 10° W 22:52:18 54° NNW 22:55:16 11° ENE visible
12 May ? 00:25:34 10° WNW 00:27:23 28° NW 00:27:23 28° NW visible
12 May ? 21:48:18 10° WSW 21:51:23 84° NNW 21:54:29 10° ENE visible
12 May ? 23:24:35 10° WNW 23:27:31 39° N 23:29:01 23° NE visible
13 May ? 01:00:38 10° WNW 01:01:07 14° WNW 01:01:07 14° WNW visible
13 May ? 22:23:30 10° W 22:26:30 45° N 22:29:30 10° ENE visible
13 May ? 23:59:44 10° WNW 00:02:32 43° N 00:02:32 43° N visible
14 May ? 21:22:26 10° W 21:25:30 63° NNW 21:28:35 10° ENE visible
14 May ? 22:58:45 10° WNW 23:01:41 39° N 23:03:49 16° ENE visible
15 May ? 00:34:43 10° WNW 00:35:54 21° WNW 00:35:54 21° WNW visible
15 May ? 21:57:40 10° WNW 22:00:37 41° N 22:03:34 10° ENE visible
15 May ? 23:33:48 10° WNW 23:36:50 51° NNE 23:37:08 49° NE visible
16 May ? 22:32:50 10° WNW 22:35:47 41° N 22:38:19 13° ENE visible
17 May ? 00:08:44 10° WNW 00:10:24 29° WNW 00:10:24 29° WNW visible
17 May ? 21:31:44 10° WNW 21:34:40 39° N 21:37:36 10° ENE visible
17 May ? 23:07:46 10° WNW 23:10:51 64° NNE 23:11:33 45° ENE visible
18 May ? 22:06:46 10° WNW 22:09:46 46° N 22:12:42 10° E visible
18 May ? 23:42:41 10° WNW 23:44:46 36° W 23:44:46 36° W visible
19 May ? 22:41:38 10° WNW 22:44:44 84° NNE 22:45:54 35° ESE visible
